Pineville, WV

9:25 PM EST on December 10, 2019 (GMT -0500)
Pineville

Weather History for KI16 - June, 2019

Change the Weather History Date:

Friday, June 14, 2019

  Actual Average (WUND) Record (WUND)
Temperature  
Mean Temperature 58 °F -  
Max Temperature 74 °F - - (-1)
Min Temperature 43 °F - - (-1)
Degree Days  
Heating Degree Days 6    
Growing Degree Days 8 (Base 50)    
Moisture  
Dew Point 44 °F    
Average Humidity 62    
Maximum Humidity 96    
Minimum Humidity 26    
Precipitation  
Precipitation 0.00 in - - ()
Sea Level Pressure  
Sea Level Pressure 30.22 in    
Wind  
Wind Speed - (North)    
Max Wind Speed -    
Max Gust Speed -    
Visibility 10 miles    
Events      
Averages and records for this station are not official NWS values.
T = Trace of Precipitation, MM = Missing Value Source: NWS Daily Summary

Daily Weather History Graph

Daily Weather History Graph

Search for Another Location

Airport or City:

Astronomy

Jun. 14, 2019 Rise Set
Actual Time 6:04 AM EDT 8:48 PM EDT
Civil Twilight 5:33 AM EDT 9:20 PM EDT
Nautical Twilight 4:54 AM EDT 9:59 PM EDT
Astronomical Twilight 4:10 AM EDT 10:43 PM EDT
Moon 6:12 PM EDT (6/14) 4:17 AM EDT (6/14)
Length of Visible Light 15h 46m
Length of Day
14h 44m
Waxing Gibbous, 92% of the Moon is Illuminated
Jun 14
Waxing Gibbous
Jun 17
Full
Jun 25
Last Quarter
Jul 2
New
Jul 9
First Quarter

Hourly Weather History & Observations

Time (EDT) Temp. Dew Point Humidity Pressure Visibility Wind Dir Wind Speed Gust Speed Precip Events Conditions
12:15 AM 56.3 °F 41.5 °F 58% 30.14 in 10.0 mi North - - N/A   Clear
12:35 AM 57.2 °F 41.7 °F 56% 30.14 in 10.0 mi North - - N/A   Clear
12:55 AM 55.9 °F 41.4 °F 58% 30.15 in 10.0 mi North - - N/A   Clear
1:15 AM 56.1 °F 41.0 °F 57% 30.15 in 10.0 mi North - - N/A   Clear
1:35 AM 54.9 °F 41.4 °F 60% 30.15 in 10.0 mi North - - N/A   Scattered Clouds
1:55 AM 52.2 °F 43.5 °F 72% 30.15 in 10.0 mi North - - N/A   Scattered Clouds
2:15 AM 50.9 °F 44.4 °F 78% 30.15 in 10.0 mi North - - N/A   Mostly Cloudy
2:35 AM 50.5 °F 44.2 °F 79% 30.15 in 10.0 mi North - - N/A   Mostly Cloudy
2:55 AM 49.5 °F 44.1 °F 82% 30.16 in 10.0 mi North - - N/A   Mostly Cloudy
3:15 AM 49.1 °F 44.6 °F 84% 30.16 in 10.0 mi North - - N/A   Mostly Cloudy
3:35 AM 48.2 °F 44.6 °F 87% 30.16 in 10.0 mi North - - N/A   Mostly Cloudy
3:55 AM 48.2 °F 44.8 °F 88% 30.16 in 10.0 mi North - - N/A   Scattered Clouds
4:15 AM 46.9 °F 44.4 °F 91% 30.16 in 10.0 mi North - - N/A   Scattered Clouds
4:35 AM 46.4 °F 44.1 °F 92% 30.17 in 10.0 mi North - - N/A   Clear
4:55 AM 45.7 °F 43.5 °F 92% 30.18 in 10.0 mi North - - N/A   Clear
5:15 AM 45.3 °F 43.5 °F 93% 30.18 in 10.0 mi North - - N/A   Clear
5:35 AM 44.6 °F 43.0 °F 94% 30.19 in 10.0 mi North - - N/A   Clear
5:55 AM 44.6 °F 43.0 °F 94% 30.20 in 10.0 mi North - - N/A   Clear
6:15 AM 44.2 °F 42.8 °F 95% 30.21 in 10.0 mi North - - N/A   Clear
6:35 AM 43.9 °F 42.8 °F 96% 30.21 in 10.0 mi North - - N/A   Clear
6:55 AM 44.1 °F 43.0 °F 96% 30.22 in 10.0 mi North - - N/A   Clear
7:15 AM 44.8 °F 43.7 °F 96% 30.23 in 10.0 mi North - - N/A   Clear
7:35 AM 45.3 °F 44.1 °F 95% 30.24 in 10.0 mi North - - N/A   Clear
7:55 AM 46.4 °F 45.3 °F 96% 30.25 in 10.0 mi North - - N/A   Clear
8:15 AM 48.2 °F 46.4 °F 93% 30.26 in 10.0 mi North - - N/A   Clear
8:35 AM 51.8 °F 47.3 °F 85% 30.26 in 10.0 mi North - - N/A   Clear
8:55 AM 56.3 °F 45.9 °F 68% 30.26 in 10.0 mi North - - N/A   Clear
9:15 AM 58.1 °F 45.1 °F 62% 30.27 in 10.0 mi North - - N/A   Clear
9:35 AM 59.2 °F 44.2 °F 58% 30.28 in 10.0 mi North - - N/A   Clear
9:55 AM 60.4 °F 44.8 °F 56% 30.29 in 10.0 mi North - - N/A   Clear
10:15 AM 62.2 °F 42.3 °F 48% 30.29 in 10.0 mi North - - N/A   Clear
10:35 AM 63.5 °F 42.1 °F 46% 30.28 in 10.0 mi North - - N/A   Clear
10:55 AM 64.9 °F 42.1 °F 43% 30.28 in 10.0 mi North - - N/A   Clear
11:15 AM 63.7 °F 40.6 °F 43% 30.29 in 10.0 mi North - - N/A   Clear
11:40 AM 65.5 °F 41.5 °F 42% 30.30 in 10.0 mi North - - N/A   Clear
11:55 AM 65.5 °F 40.1 °F 39% 30.29 in 10.0 mi North - - N/A   Clear
12:15 PM 67.3 °F 39.0 °F 35% 30.29 in 10.0 mi North - - N/A   Clear
12:35 PM 67.3 °F 39.4 °F 36% 30.29 in 10.0 mi North - - N/A   Clear
12:55 PM 68.0 °F 37.6 °F 33% 30.29 in 10.0 mi North - - N/A   Clear
1:15 PM 69.1 °F 37.9 °F 32% 30.28 in 10.0 mi North - - N/A   Clear
1:35 PM 68.9 °F 37.2 °F 31% 30.28 in 10.0 mi North - - N/A   Clear
1:55 PM 70.2 °F 36.7 °F 29% 30.26 in 10.0 mi North - - N/A   Clear
2:15 PM 70.3 °F 37.4 °F 30% 30.26 in 10.0 mi North - - N/A   Clear
2:35 PM 70.7 °F 37.4 °F 30% 30.25 in 10.0 mi North - - N/A   Clear
2:55 PM 70.7 °F 39.7 °F 32% 30.24 in 10.0 mi North - - N/A   Clear
3:15 PM 70.9 °F 40.5 °F 33% 30.23 in 10.0 mi North - - N/A   Clear
3:35 PM 71.6 °F 39.7 °F 31% 30.23 in 10.0 mi North - - N/A   Clear
3:55 PM 72.3 °F 38.7 °F 29% 30.22 in 10.0 mi North - - N/A   Clear
4:15 PM 72.9 °F 39.6 °F 30% 30.22 in 10.0 mi North - - N/A   Clear
4:35 PM 74.1 °F 37.9 °F 27% 30.22 in 10.0 mi North - - N/A   Clear
4:55 PM 73.6 °F 36.3 °F 26% 30.21 in 10.0 mi North - - N/A   Clear
5:15 PM 73.8 °F 36.9 °F 26% 30.21 in 10.0 mi North - - N/A   Clear
5:35 PM 73.6 °F 40.3 °F 30% 30.20 in 10.0 mi North - - N/A   Clear
5:55 PM 72.9 °F 42.8 °F 34% 30.20 in 10.0 mi North - - N/A   Clear
6:15 PM 71.6 °F 42.1 °F 34% 30.19 in 10.0 mi North - - N/A   Clear
6:35 PM 68.9 °F 49.8 °F 51% 30.19 in 10.0 mi North - - N/A   Clear
6:55 PM 67.1 °F 51.4 °F 57% 30.19 in 10.0 mi North - - N/A   Clear
7:15 PM 66.0 °F 52.2 °F 61% 30.19 in 10.0 mi North - - N/A   Clear
7:35 PM 63.0 °F 51.3 °F 66% 30.20 in 10.0 mi North - - N/A   Clear
7:55 PM 62.2 °F 51.4 °F 68% 30.20 in 10.0 mi North - - N/A   Clear
8:15 PM 61.0 °F 52.7 °F 74% 30.20 in 10.0 mi North - - N/A   Clear
8:35 PM 59.7 °F 52.2 °F 76% 30.20 in 10.0 mi North - - N/A   Clear
8:55 PM 58.1 °F 51.6 °F 79% 30.20 in 10.0 mi North - - N/A   Clear
9:15 PM 57.0 °F 51.1 °F 81% 30.20 in 10.0 mi North - - N/A   Clear
9:35 PM 56.1 °F 50.7 °F 82% 30.21 in 10.0 mi North - - N/A   Clear
9:55 PM 54.9 °F 50.2 °F 84% 30.21 in 10.0 mi North - - N/A   Clear
10:15 PM 54.0 °F 49.6 °F 85% 30.21 in 10.0 mi North - - N/A   Clear
10:35 PM 52.9 °F 49.5 °F 88% 30.21 in 10.0 mi North - - N/A   Clear